Weather History for Meacham, OR

Change the Weather History Date:

Sunday, June 23, 2013

  Actual Average Record
Temperature  
Mean Temperature 54 °F -  
Max Temperature 69 °F 68 °F 86 °F (2004)
Min Temperature 39 °F 37 °F 28 °F (2003)
Degree Days  
Heating Degree Days 11    
Growing Degree Days 4 (Base 50)    
Moisture  
Dew Point 47 °F    
Average Humidity 75    
Maximum Humidity 94    
Minimum Humidity 43    
Precipitation  
Precipitation 0.12 in - - ()
Sea Level Pressure  
Sea Level Pressure 29.78 in    
Wind  
Wind Speed 0 mph (North)    
Max Wind Speed 5 mph    
Max Gust Speed -    
Visibility 10 miles    
Events Rain    
Averages and records for this station are not official NWS values.
T = Trace of Precipitation, MM = Missing Value Source: NWS Daily Summary

Daily Weather History Graph

Daily Weather History Graph

Search for Another Location

Airport:

Trip Planner

Search our weather history database for the weather conditions in past years. The results will help you decide how hot, cold, wet, or windy it might be!

Date:

Astronomy

Jun. 23, 2013 Rise Set
Actual Time 5:05 AM PDT 8:46 PM PDT
Civil Twilight 4:27 AM PDT 9:24 PM PDT
Nautical Twilight 3:36 AM PDT 10:15 PM PDT
Astronomical Twilight 2:27 AM PDT 11:24 PM PDT
Moon 8:58 PM PDT 5:32 AM PDT
Length of Visible Light 16h 57m
Length of Day
15h 40m
Full, 100% of the Moon is Illuminated
Jun 23
Full
Jun 29
Last Quarter
Jul 8
New
Jul 15
First Quarter
Jul 22
Full

Hourly Weather History & Observations

Time (PDT) Temp. Dew Point Humidity Pressure Visibility Wind Dir Wind Speed Gust Speed Precip Events Conditions
12:56 AM 43.0 °F 41.0 °F 93% 29.94 in 10.0 mi Calm Calm - N/A   Clear
1:56 AM 42.1 °F 39.0 °F 89% 29.92 in 10.0 mi Calm Calm - N/A   Clear
2:56 AM 39.9 °F 37.9 °F 93% 29.91 in 10.0 mi Calm Calm - N/A   Clear
3:56 AM 41.0 °F 39.0 °F 93% 29.89 in 10.0 mi Calm Calm - N/A   Overcast
4:56 AM 43.0 °F 39.9 °F 89% 29.87 in 10.0 mi Calm Calm - N/A   Overcast
5:56 AM 45.0 °F 42.1 °F 90% 29.86 in 10.0 mi Calm Calm - N/A   Overcast
6:56 AM 46.9 °F 44.1 °F 90% 29.85 in 10.0 mi Calm Calm - N/A   Overcast
7:56 AM 53.1 °F 48.0 °F 83% 29.85 in 10.0 mi Calm Calm - N/A   Overcast
8:56 AM 59.0 °F 46.9 °F 64% 29.83 in 10.0 mi Calm Calm - N/A   Mostly Cloudy
9:56 AM 63.0 °F 46.0 °F 54% 29.81 in 10.0 mi Calm Calm - N/A   Clear
10:56 AM 64.9 °F 43.0 °F 45% 29.81 in 10.0 mi Calm Calm - N/A   Mostly Cloudy
11:56 AM 64.9 °F 45.0 °F 48% 29.80 in 10.0 mi Calm Calm - 0.00 in   Overcast
12:56 PM 68.0 °F 45.0 °F 43% 29.77 in 10.0 mi Calm Calm - N/A   Mostly Cloudy
1:56 PM 68.0 °F 46.0 °F 45% 29.75 in 10.0 mi Calm Calm - 0.00 in   Scattered Clouds
2:56 PM 69.1 °F 48.9 °F 49% 29.74 in 10.0 mi Calm Calm - N/A   Mostly Cloudy
3:56 PM 68.0 °F 50.0 °F 52% 29.72 in 10.0 mi Variable 4.6 mph - N/A   Partly Cloudy
4:56 PM 66.9 °F 50.0 °F 54% 29.70 in 10.0 mi Variable 4.6 mph - N/A   Mostly Cloudy
5:56 PM 64.9 °F 48.9 °F 56% 29.69 in 10.0 mi Variable 4.6 mph - N/A   Partly Cloudy
6:56 PM 63.0 °F 48.0 °F 58% 29.69 in 10.0 mi Calm Calm - N/A   Overcast
7:56 PM 55.9 °F 52.0 °F 87% 29.72 in 10.0 mi Calm Calm - 0.03 in Rain Light Rain
8:39 PM 55.4 °F 51.8 °F 88% 29.74 in 10.0 mi Variable 3.5 mph - 0.00 in   Overcast
8:56 PM 54.0 °F 51.1 °F 90% 29.70 in 10.0 mi Calm Calm - 0.00 in   Overcast
9:34 PM 53.6 °F 51.8 °F 94% 29.75 in 10.0 mi Calm Calm - N/A   Overcast
9:56 PM 54.0 °F 50.0 °F 86% 29.70 in 10.0 mi Calm Calm - N/A   Overcast
10:20 PM 53.6 °F 50.0 °F 88% 29.75 in 10.0 mi Calm Calm - N/A   Overcast
10:44 PM 53.6 °F 50.0 °F 88% 29.75 in 10.0 mi Calm Calm - 0.00 in Rain Light Rain
10:56 PM 53.1 °F 50.0 °F 89% 29.70 in 7.0 mi Calm Calm - 0.00 in Rain Light Rain
11:56 PM 53.1 °F 51.1 °F 93% 29.68 in 9.0 mi Calm Calm - 0.09 in Rain Light Rain